Lakeview AWS, OR

6:44 PM PDT on April 25, 2017 (GMT -0700)
Lake County

Weather History for KLKV - January, 2013

Change the Weather History Date:

Tuesday, January 15, 2013

  Actual Average Record
Temperature  
Mean Temperature 5 °F -  
Max Temperature 19 °F 39 °F 55 °F (1981)
Min Temperature -9 °F 24 °F -9 °F (2013)
Degree Days  
Heating Degree Days 60    
Moisture  
Dew Point -15 °F    
Average Humidity 46    
Maximum Humidity 100    
Minimum Humidity 19    
Precipitation  
Precipitation 0.00 in - - ()
Sea Level Pressure  
Sea Level Pressure 30.54 in    
Wind  
Wind Speed 2 mph (NW)    
Max Wind Speed 8 mph    
Max Gust Speed -    
Visibility 10 miles    
Events      
Averages and records for this station are not official NWS values.
T = Trace of Precipitation, MM = Missing Value Source: NWS Daily Summary

Daily Weather History Graph

Daily Weather History Graph

Search for Another Location

Airport or City:

Trip Planner

Search our weather history database for the weather conditions in past years. The results will help you decide how hot, cold, wet, or windy it might be!

Date:

Astronomy

Jan. 15, 2013 Rise Set
Actual Time 7:27 AM PST 4:55 PM PST
Civil Twilight 6:56 AM PST 5:26 PM PST
Nautical Twilight 6:21 AM PST 6:00 PM PST
Astronomical Twilight 5:48 AM PST 6:34 PM PST
Moon 9:30 AM PST (1/15) 9:56 PM PST (1/15)
Length of Visible Light 10h 29m
Length of Day
9h 27m
Waxing Crescent, 20% of the Moon is Illuminated
Jan 15
Waxing Crescent
Jan 18
First Quarter
Jan 26
Full
Feb 3
Last Quarter
Feb 9
New

Hourly Weather History & Observations

Time (PST) Temp. Windchill Dew Point Humidity Pressure Visibility Wind Dir Wind Speed Gust Speed Precip Events Conditions
12:15 AM -5.8 °F -14.5 °F -14.8 °F 65% 30.42 in 10.0 mi NNW 3.5 mph - N/A   Clear
12:35 AM -5.8 °F -14.5 °F -18.4 °F 55% 30.42 in 10.0 mi WSW 3.5 mph - N/A   Clear
1:15 AM -7.6 °F - -14.8 °F 71% 30.43 in 10.0 mi Calm Calm - N/A   Clear
1:35 AM -7.6 °F - -14.8 °F 71% 30.43 in 10.0 mi Calm Calm - N/A   Clear
1:55 AM -7.6 °F -16.5 °F -18.4 °F 59% 30.45 in 10.0 mi NW 3.5 mph - N/A   Clear
2:15 AM -9.4 °F - -23.8 °F 49% 30.45 in 10.0 mi Calm Calm - N/A   Clear
2:55 AM -7.6 °F -16.5 °F -14.8 °F 71% 30.45 in 10.0 mi NNW 3.5 mph - N/A   Clear
3:15 AM -7.6 °F -22.1 °F -11.2 °F 84% 30.45 in 10.0 mi NNW 6.9 mph - N/A   Clear
3:35 AM -5.8 °F -16.7 °F - N/A% 30.45 in 10.0 mi North 4.6 mph - N/A   Clear
4:15 AM -5.8 °F - - N/A% 30.46 in 10.0 mi Calm Calm - N/A   Clear
4:35 AM -5.8 °F - - N/A% 30.46 in 10.0 mi Calm Calm - N/A   Clear
4:55 AM -5.8 °F - - N/A% 30.46 in 10.0 mi Calm Calm - N/A   Clear
5:15 AM -5.8 °F -21.2 °F - N/A% 30.46 in 10.0 mi North 8.1 mph - N/A   Clear
5:35 AM -5.8 °F -16.7 °F -29.2 °F 32% 30.47 in 10.0 mi WNW 4.6 mph - N/A   Clear
5:55 AM -5.8 °F - -27.4 °F 35% 30.48 in 10.0 mi Calm Calm - N/A   Clear
6:15 AM -7.6 °F - -29.2 °F 34% 30.48 in 10.0 mi Calm Calm - N/A   Clear
6:35 AM -7.6 °F - -27.4 °F 38% 30.49 in 10.0 mi Calm Calm - N/A   Clear
6:55 AM -7.6 °F -16.5 °F -27.4 °F 38% 30.50 in 10.0 mi WNW 3.5 mph - N/A   Clear
7:15 AM -7.6 °F -18.8 °F -25.6 °F 41% 30.51 in 10.0 mi NNW 4.6 mph - N/A   Clear
7:35 AM -5.8 °F -14.5 °F -25.6 °F 38% 30.51 in 10.0 mi NNW 3.5 mph - N/A   Clear
7:55 AM -5.8 °F -18.4 °F -23.8 °F 42% 30.52 in 10.0 mi NW 5.8 mph - N/A   Clear
8:15 AM -2.2 °F -12.5 °F -18.4 °F 46% 30.53 in 10.0 mi North 4.6 mph - N/A   Clear
8:35 AM 1.4 °F -8.3 °F -14.8 °F 47% 30.55 in 10.0 mi NW 4.6 mph - N/A   Clear
8:55 AM -0.4 °F - -16.6 °F 46% 30.55 in 10.0 mi Calm Calm - N/A   Clear
9:15 AM -0.4 °F - -13.0 °F 55% 30.55 in 10.0 mi Calm Calm - N/A   Clear
9:35 AM -0.4 °F - -11.2 °F 60% 30.56 in 10.0 mi Calm Calm - N/A   Clear
9:55 AM 5.0 °F - -9.4 °F 52% 30.56 in 10.0 mi Calm Calm - N/A   Clear
10:15 AM 8.6 °F - -5.8 °F 52% 30.57 in 10.0 mi Calm Calm - N/A   Clear
10:35 AM 10.4 °F - -2.2 °F 57% 30.57 in 10.0 mi Calm Calm - N/A   Clear
10:55 AM 12.2 °F - 5.0 °F 73% 30.57 in 10.0 mi Calm Calm - N/A   Clear
11:15 AM 6.8 °F - -25.6 °F 21% 30.56 in 10.0 mi Calm Calm - N/A   Clear
11:35 AM 6.8 °F -0.1 °F -22.0 °F 26% 30.55 in 9.0 mi SE 3.5 mph - N/A   Clear
11:55 AM 12.2 °F - -16.6 °F 27% 30.55 in 10.0 mi Calm Calm - N/A   Clear
12:15 PM 17.6 °F - -11.2 °F 27% 30.55 in 10.0 mi Calm Calm - N/A   Clear
12:35 PM 15.8 °F - -5.8 °F 38% 30.55 in 10.0 mi Calm Calm - N/A   Clear
12:55 PM 10.4 °F - -7.6 °F 44% 30.54 in 10.0 mi Calm Calm - N/A   Clear
1:15 PM 12.2 °F - -2.2 °F 53% 30.54 in 10.0 mi Calm Calm - N/A   Clear
1:35 PM 14.0 °F 8.2 °F -9.4 °F 35% 30.54 in 10.0 mi SE 3.5 mph - N/A   Clear
1:55 PM 17.6 °F 12.3 °F -13.0 °F 25% 30.54 in 10.0 mi SSE 3.5 mph - N/A   Clear
2:15 PM 14.0 °F 6.5 °F -13.0 °F 29% 30.54 in 10.0 mi SE 4.6 mph - N/A   Clear
2:35 PM 15.8 °F 8.6 °F -9.4 °F 32% 30.55 in 10.0 mi ESE 4.6 mph - N/A   Clear
2:55 PM 17.6 °F - 17.6 °F 100% 30.55 in 10.0 mi Calm Calm - N/A   Clear
3:15 PM 19.4 °F - -16.6 °F 20% 30.56 in 10.0 mi Calm Calm - N/A   Clear
3:35 PM 17.6 °F - -9.4 °F 30% 30.56 in 10.0 mi Calm Calm - N/A   Clear
3:55 PM 12.2 °F - -13.0 °F 32% 30.57 in 10.0 mi Calm Calm - N/A   Clear
4:15 PM 15.8 °F - -5.8 °F 38% 30.57 in 10.0 mi Calm Calm - N/A   Clear
4:35 PM 12.2 °F - -7.6 °F 41% 30.58 in 10.0 mi Calm Calm - N/A   Clear
4:55 PM 10.4 °F - -5.8 °F 48% 30.58 in 10.0 mi Calm Calm - N/A   Clear
5:15 PM 8.6 °F - -5.8 °F 52% 30.58 in 10.0 mi Calm Calm - N/A   Clear
5:35 PM 6.8 °F -0.1 °F -2.2 °F 67% 30.59 in 10.0 mi North 3.5 mph - N/A   Clear
5:55 PM 5.0 °F - -29.2 °F 19% 30.59 in 10.0 mi Calm Calm - N/A   Clear
6:15 PM 3.2 °F -4.2 °F -27.4 °F 23% 30.59 in 10.0 mi West 3.5 mph - N/A   Clear
6:35 PM 3.2 °F -6.2 °F -23.8 °F 28% 30.59 in 10.0 mi West 4.6 mph - N/A   Clear
6:55 PM 3.2 °F - -20.2 °F 33% 30.60 in 10.0 mi Calm Calm - N/A   Clear
7:15 PM -0.4 °F - -23.8 °F 32% 30.59 in 10.0 mi Calm Calm - N/A   Clear
7:35 PM -0.4 °F - -22.0 °F 36% 30.60 in 10.0 mi Calm Calm - N/A   Clear
7:55 PM -0.4 °F -8.3 °F -18.4 °F 43% 30.59 in 10.0 mi NNW 3.5 mph - N/A   Clear
8:15 PM -0.4 °F - -16.6 °F 46% 30.60 in 10.0 mi Calm Calm - N/A   Clear
8:35 PM -0.4 °F -10.4 °F -16.6 °F 46% 30.60 in 10.0 mi NNW 4.6 mph - N/A   Clear
8:55 PM -0.4 °F -12.0 °F -16.6 °F 46% 30.59 in 10.0 mi NNW 5.8 mph - N/A   Clear
9:15 PM -2.2 °F -14.2 °F -18.4 °F 46% 30.60 in 10.0 mi NW 5.8 mph - N/A   Clear
9:35 PM -4.0 °F -12.4 °F -18.4 °F 50% 30.59 in 10.0 mi NNE 3.5 mph - N/A   Clear
10:15 PM -4.0 °F - -16.6 °F 55% 30.59 in 10.0 mi Calm Calm - N/A   Clear
10:35 PM -2.2 °F - -13.0 °F 60% 30.59 in 10.0 mi Calm Calm - N/A   Clear
10:55 PM -5.8 °F -16.7 °F -20.2 °F 50% 30.59 in 10.0 mi SSW 4.6 mph - N/A   Clear
11:15 PM -5.8 °F - -20.2 °F 50% 30.59 in 10.0 mi Calm Calm - N/A   Clear
11:35 PM -5.8 °F - -18.4 °F 55% 30.60 in 10.0 mi Calm Calm - N/A   Clear
11:55 PM -5.8 °F -14.5 °F -14.8 °F 65% 30.60 in 10.0 mi East 3.5 mph - N/A   Clear